TimeEST,TemperatureF,Dew PointF,Humidity,Sea Level PressureIn,VisibilityMPH,Wind Direction,Wind SpeedMPH,Gust SpeedMPH,PrecipitationIn,Events,Conditions,WindDirDegrees,DateUTC
12:56 AM,46.9,43.0,86,30.25,9.0,North,4.6,-,N/A,,Overcast,350,2012-01-23 05:56:00
1:56 AM,46.0,43.0,89,30.25,8.0,North,8.1,-,N/A,,Overcast,360,2012-01-23 06:56:00
2:54 AM,46.4,42.8,87,30.22,6.0,North,4.6,-,N/A,,Overcast,10,2012-01-23 07:54:00
2:56 AM,46.0,43.0,89,30.22,6.0,NNE,4.6,-,N/A,,Overcast,30,2012-01-23 07:56:00
3:54 AM,46.4,44.6,93,30.18,3.0,NNE,5.8,-,N/A,,Overcast,30,2012-01-23 08:54:00
3:56 AM,46.9,44.1,90,30.18,4.0,NNE,6.9,-,N/A,,Overcast,30,2012-01-23 08:56:00
4:18 AM,46.4,44.6,93,30.17,2.5,NNE,4.6,-,N/A,,Overcast,30,2012-01-23 09:18:00
4:47 AM,46.4,44.6,93,30.16,1.5,NNE,4.6,-,N/A,,Overcast,30,2012-01-23 09:47:00
4:56 AM,46.9,45.0,93,30.16,1.2,NE,4.6,-,N/A,,Overcast,40,2012-01-23 09:56:00
5:10 AM,46.4,44.6,93,30.13,1.0,NE,6.9,-,N/A,,Overcast,50,2012-01-23 10:10:00
5:56 AM,48.0,46.9,96,30.16,1.0,Variable,3.5,-,N/A,,Overcast,0,2012-01-23 10:56:00
6:23 AM,48.2,46.4,93,30.16,0.8,NNE,3.5,-,N/A,,Mist,20,2012-01-23 11:23:00
6:56 AM,48.0,46.9,96,30.19,0.8,NNW,3.5,-,N/A,,Mist,330,2012-01-23 11:56:00
7:12 AM,48.2,46.4,93,30.19,0.1,WNW,4.6,-,N/A,,Mist,300,2012-01-23 12:12:00
7:56 AM,48.9,46.9,93,30.19,0.1,Calm,Calm,-,N/A,Fog,Fog,0,2012-01-23 12:56:00
8:56 AM,48.9,48.0,97,30.19,0.1,Calm,Calm,-,N/A,Fog,Fog,0,2012-01-23 13:56:00
9:56 AM,51.1,50.0,96,30.19,0.1,NNE,3.5,-,N/A,Fog,Fog,30,2012-01-23 14:56:00
10:53 AM,53.6,51.8,94,30.17,0.8,East,3.5,-,N/A,,Overcast,90,2012-01-23 15:53:00
10:56 AM,53.1,51.1,93,30.17,0.8,East,3.5,-,N/A,,Overcast,90,2012-01-23 15:56:00
11:03 AM,53.6,51.8,94,30.16,1.2,East,4.6,-,N/A,,Overcast,90,2012-01-23 16:03:00
11:16 AM,55.4,53.6,94,30.16,0.5,ESE,4.6,-,N/A,,Overcast,110,2012-01-23 16:16:00
11:49 AM,57.2,53.6,88,30.16,1.0,SSE,3.5,-,N/A,,Overcast,160,2012-01-23 16:49:00
11:56 AM,57.0,54.0,89,30.15,1.0,ESE,5.8,-,N/A,,Overcast,110,2012-01-23 16:56:00
12:10 PM,57.2,55.4,94,30.13,1.0,ESE,4.6,-,N/A,,Overcast,110,2012-01-23 17:10:00
12:17 PM,57.2,55.4,94,30.13,3.0,Calm,Calm,-,N/A,,Overcast,0,2012-01-23 17:17:00
12:56 PM,62.1,57.0,84,30.12,3.0,ESE,6.9,-,N/A,,Haze,110,2012-01-23 17:56:00
1:05 PM,62.6,57.2,82,30.11,4.0,ESE,5.8,-,N/A,,Haze,110,2012-01-23 18:05:00
1:56 PM,64.0,59.0,84,30.09,4.0,ESE,8.1,-,N/A,,Haze,120,2012-01-23 18:56:00
2:56 PM,66.0,60.1,81,30.07,10.0,SSE,8.1,-,N/A,,Overcast,160,2012-01-23 19:56:00
3:56 PM,66.9,61.0,81,30.05,10.0,SSE,5.8,-,N/A,,Mostly Cloudy,160,2012-01-23 20:56:00
4:56 PM,64.9,60.1,84,30.06,10.0,South,3.5,-,N/A,,Mostly Cloudy,170,2012-01-23 21:56:00
5:56 PM,62.1,57.9,86,30.06,10.0,ESE,4.6,-,N/A,,Clear,110,2012-01-23 22:56:00
6:56 PM,62.1,59.0,90,30.06,10.0,SSE,8.1,-,N/A,,Clear,150,2012-01-23 23:56:00
7:56 PM,62.1,59.0,90,30.08,10.0,SSE,4.6,-,N/A,,Clear,160,2012-01-24 00:56:00
8:56 PM,60.1,57.0,90,30.09,10.0,SSE,3.5,-,N/A,,Scattered Clouds,150,2012-01-24 01:56:00
9:45 PM,62.6,59.0,88,30.08,10.0,SSE,9.2,-,N/A,,Partly Cloudy,150,2012-01-24 02:45:00
9:56 PM,62.1,59.0,90,30.08,10.0,Variable,5.8,-,N/A,,Scattered Clouds,0,2012-01-24 02:56:00
10:56 PM,63.0,61.0,93,30.07,10.0,SSE,11.5,23.0,N/A,,Mostly Cloudy,150,2012-01-24 03:56:00
11:07 PM,64.4,60.8,88,30.07,10.0,SSE,11.5,26.5,N/A,,Scattered Clouds,160,2012-01-24 04:07:00
11:56 PM,63.0,60.1,90,30.07,10.0,SSE,6.9,-,N/A,,Clear,160,2012-01-24 04:56:00